1998-067UT

Last updated on Mon Jan 09 2023 00:02:04 GMT+0000 (Coordinated Universal Time)

1 55126U 98067UT 23008.07922322 .00046009 00000+0 77287-3 0 9991 2 55126 51.6425 41.5470 0003592 288.7439 71.3160 15.51301304 1579

Satellite not in orbit

1998-067UT